Hourly Weather Hulkar

Today, 17 April, Saturday

Time Temperature Precipitation Wind Pressure Humidity
00:00 +18°C° 0 mm 2 mps 736 mmHg 32%
01:00 +18°C° 0 mm 2 mps 736 mmHg 31%
02:00 +18°C° 0 mm 1 mps 736 mmHg 31%
03:00 +18°C° 0 mm 1 mps 736 mmHg 31%
04:00 +16°C° 0 mm 1 mps 736 mmHg 32%
05:00 +16°C° 0 mm 1 mps 736 mmHg 32%
06:00 +18°C° 0 mm 1 mps 737 mmHg 31%
07:00 +20°C° 0 mm 1 mps 737 mmHg 29%
08:00 +21°C° 0 mm 1 mps 738 mmHg 28%
09:00 +22°C° 0 mm 1 mps 737 mmHg 26%
10:00 +23°C° 0 mm 2 mps 737 mmHg 24%
11:00 +25°C° 0 mm 2 mps 737 mmHg 22%
12:00 +25°C° 0 mm 2 mps 737 mmHg 21%
13:00 +26°C° 0 mm 2 mps 737 mmHg 20%
14:00 +27°C° 0 mm 2 mps 737 mmHg 19%
15:00 +27°C° 0 mm 2 mps 737 mmHg 19%
16:00 +27°C° 0 mm 2 mps 737 mmHg 19%
17:00 +27°C° 0 mm 2 mps 736 mmHg 19%
18:00 +25°C° 0 mm 2 mps 737 mmHg 23%
19:00 +24°C° 0 mm 2 mps 737 mmHg 26%
20:00 +21°C° 0 mm 2 mps 737 mmHg 29%
21:00 +22°C° 0 mm 1 mps 737 mmHg 30%
22:00 +21°C° 0 mm 1 mps 737 mmHg 30%
23:00 +21°C° 0 mm 1 mps 737 mmHg 30%

Tomorrow, 18 April, Sunday

Time Temperature Precipitation Wind Pressure Humidity
00:00 +20°C° 0 mm 2 mps 737 mmHg 31%
01:00 +20°C° 0 mm 2 mps 737 mmHg 31%
02:00 +19°C° 0 mm 2 mps 737 mmHg 31%
03:00 +19°C° 0 mm 2 mps 737 mmHg 32%
04:00 +19°C° 0 mm 2 mps 737 mmHg 32%
05:00 +19°C° 0 mm 2 mps 738 mmHg 33%
06:00 +19°C° 0 mm 2 mps 738 mmHg 33%
07:00 +20°C° 0 mm 2 mps 739 mmHg 33%
08:00 +21°C° 0 mm 1 mps 739 mmHg 32%
09:00 +23°C° 0 mm 1 mps 739 mmHg 29%
10:00 +24°C° 0 mm 1 mps 739 mmHg 25%
11:00 +26°C° 0 mm 1 mps 739 mmHg 22%
12:00 +26°C° 0 mm 1 mps 739 mmHg 21%
13:00 +27°C° 0 mm 2 mps 739 mmHg 19%
14:00 +28°C° 0 mm 2 mps 739 mmHg 18%
15:00 +28°C° 0 mm 2 mps 738 mmHg 18%
16:00 +28°C° 0 mm 2 mps 738 mmHg 18%
17:00 +28°C° 0 mm 2 mps 738 mmHg 18%
18:00 +26°C° 0 mm 2 mps 738 mmHg 21%
19:00 +24°C° 0 mm 1 mps 738 mmHg 25%
20:00 +22°C° 0 mm 1 mps 738 mmHg 28%
21:00 +22°C° 0 mm 1 mps 738 mmHg 29%
22:00 +20°C° 0 mm 2 mps 738 mmHg 30%
23:00 +19°C° 0 mm 2 mps 738 mmHg 31%

Day after tomorrow, 19 April, Monday

Time Temperature Precipitation Wind Pressure Humidity
00:00 +19°C° 0 mm 2 mps 737 mmHg 31%
01:00 +18°C° 0 mm 2 mps 737 mmHg 31%
02:00 +18°C° 0 mm 2 mps 737 mmHg 32%
03:00 +18°C° 0 mm 1 mps 737 mmHg 33%
04:00 +18°C° 0 mm 1 mps 737 mmHg 34%
05:00 +18°C° 0 mm 1 mps 737 mmHg 35%
06:00 +19°C° 0 mm 1 mps 737 mmHg 33%
07:00 +18°C° 0 mm 0 mps 737 mmHg 31%
08:00 +19°C° 0 mm 0 mps 737 mmHg 30%
09:00 +22°C° 0 mm 1 mps 737 mmHg 29%
10:00 +23°C° 0 mm 1 mps 737 mmHg 27%
11:00 +25°C° 0 mm 2 mps 736 mmHg 26%
12:00 +26°C° 0 mm 2 mps 736 mmHg 25%
13:00 +26°C° 0 mm 2 mps 736 mmHg 23%
14:00 +27°C° 0 mm 2 mps 735 mmHg 21%
15:00 +27°C° 0 mm 2 mps 735 mmHg 21%
16:00 +27°C° 0 mm 2 mps 735 mmHg 21%
17:00 +27°C° 0 mm 1 mps 734 mmHg 21%
18:00 +25°C° 0 mm 2 mps 734 mmHg 24%
19:00 +24°C° 0 mm 2 mps 734 mmHg 28%
20:00 +21°C° 0 mm 2 mps 734 mmHg 31%
21:00 +20°C° 0 mm 2 mps 734 mmHg 33%
22:00 +21°C° 0 mm 1 mps 734 mmHg 35%
23:00 +20°C° 0 mm 1 mps 734 mmHg 38%

20 April, Tuesday

Time Temperature Precipitation Wind Pressure Humidity
00:00 +19°C° 0 mm 1 mps 734 mmHg 39%
01:00 +17°C° 0 mm 0 mps 733 mmHg 40%
02:00 +16°C° 0 mm 0 mps 733 mmHg 41%
03:00 +16°C° 0 mm 0 mps 733 mmHg 42%
04:00 +15°C° 0 mm 0 mps 733 mmHg 42%
05:00 +15°C° 0 mm 0 mps 733 mmHg 43%
06:00 +16°C° 0 mm 0 mps 733 mmHg 41%
07:00 +18°C° 0 mm 0 mps 733 mmHg 38%
08:00 +19°C° 0 mm 0 mps 733 mmHg 35%
09:00 +20°C° 0 mm 0 mps 733 mmHg 32%
10:00 +22°C° 0 mm 0 mps 733 mmHg 28%
11:00 +25°C° 0 mm 1 mps 733 mmHg 25%
12:00 +26°C° 0 mm 1 mps 733 mmHg 24%
13:00 +27°C° 0 mm 2 mps 733 mmHg 22%
14:00 +28°C° 0 mm 2 mps 732 mmHg 21%
15:00 +27°C° 0 mm 3 mps 732 mmHg 25%
16:00 +25°C° 0 mm 5 mps 733 mmHg 29%
17:00 +23°C° 0 mm 6 mps 733 mmHg 33%
18:00 +22°C° 0 mm 5 mps 733 mmHg 36%
19:00 +21°C° 0 mm 4 mps 733 mmHg 39%
20:00 +20°C° 0 mm 3 mps 734 mmHg 42%
21:00 +19°C° 0 mm 3 mps 734 mmHg 47%
22:00 +18°C° 0 mm 2 mps 734 mmHg 52%
23:00 +19°C° 0 mm 1 mps 734 mmHg 57%

21 April, Wednesday

Time Temperature Precipitation Wind Pressure Humidity
00:00 +17°C° 0.3 mm 2 mps 734 mmHg 63%
01:00 +16°C° 0.3 mm 3 mps 734 mmHg 70%
02:00 +14°C° 0.3 mm 4 mps 734 mmHg 77%
03:00 +13°C° 2.1 mm 3 mps 734 mmHg 79%
04:00 +13°C° 2.1 mm 3 mps 734 mmHg 82%
05:00 +12°C° 2.1 mm 3 mps 734 mmHg 85%
06:00 +13°C° 0.3 mm 3 mps 735 mmHg 80%
07:00 +15°C° 0.3 mm 2 mps 735 mmHg 75%
08:00 +15°C° 0.3 mm 2 mps 736 mmHg 71%
09:00 +16°C° 0.1 mm 3 mps 736 mmHg 65%
10:00 +17°C° 0.1 mm 3 mps 736 mmHg 60%
11:00 +18°C° 0.1 mm 4 mps 736 mmHg 55%
12:00 +19°C° 0.3 mm 4 mps 736 mmHg 52%
13:00 +20°C° 0.3 mm 4 mps 736 mmHg 49%
14:00 +20°C° 0.3 mm 4 mps 736 mmHg 46%
15:00 +20°C° 0.2 mm 4 mps 736 mmHg 45%
16:00 +20°C° 0.2 mm 4 mps 736 mmHg 43%
17:00 +20°C° 0.2 mm 5 mps 736 mmHg 41%
18:00 +19°C° 0 mm 5 mps 737 mmHg 47%
19:00 +16°C° 0 mm 5 mps 738 mmHg 52%
20:00 +15°C° 0 mm 5 mps 738 mmHg 58%
21:00 +14°C° 0 mm 5 mps 739 mmHg 59%
22:00 +12°C° 0 mm 5 mps 739 mmHg 61%
23:00 +11°C° 0 mm 4 mps 739 mmHg 63%

22 April, Thursday

Time Temperature Precipitation Wind Pressure Humidity
00:00 +11°C° 0 mm 4 mps 739 mmHg 62%
01:00 +10°C° 0 mm 4 mps 739 mmHg 62%
02:00 +10°C° 0 mm 4 mps 739 mmHg 61%
03:00 +8°C° 0 mm 4 mps 740 mmHg 60%
04:00 +8°C° 0 mm 4 mps 740 mmHg 59%
05:00 +8°C° 0 mm 4 mps 740 mmHg 59%
06:00 +8°C° 0 mm 4 mps 740 mmHg 56%
07:00 +8°C° 0 mm 4 mps 741 mmHg 53%
08:00 +8°C° 0 mm 4 mps 741 mmHg 51%
09:00 +11°C° 0 mm 3 mps 741 mmHg 49%
10:00 +12°C° 0 mm 3 mps 741 mmHg 47%
11:00 +13°C° 0 mm 3 mps 741 mmHg 45%
12:00 +16°C° 0 mm 3 mps 741 mmHg 43%
13:00 +17°C° 0 mm 3 mps 741 mmHg 42%
14:00 +18°C° 0 mm 3 mps 740 mmHg 40%
15:00 +18°C° 0 mm 2 mps 740 mmHg 39%
16:00 +19°C° 0 mm 2 mps 740 mmHg 37%
17:00 +19°C° 0 mm 2 mps 740 mmHg 36%
18:00 +19°C° 0 mm 1 mps 740 mmHg 39%
19:00 +18°C° 0 mm 1 mps 740 mmHg 42%
20:00 +16°C° 0 mm 1 mps 741 mmHg 46%
21:00 +15°C° 0 mm 1 mps 740 mmHg 47%
22:00 +15°C° 0 mm 1 mps 740 mmHg 48%
23:00 +14°C° 0 mm 1 mps 740 mmHg 50%
Show more